Location: Elche
(38.2500°N, 0.7000°W)
Time: 14:25:28
(UTC+02:00)

OTV 5 (USA 277) - Visible Passes

Search period start: 21 October 2019 00:00
Search period end: 30 October 2019 23:00
Orbit: 310 x 324 km, 54.5° (Epoch: 17 October)

Date Brightness Start Highest point End Pass type
(mag) Time Alt. Az. Time Alt. Az. Time Alt. Az.
21 Oct ? 07:19:47 23° W 07:20:53 34° SW 07:23:24 10° SSE visible
22 Oct ? 06:03:44 10° ESE 06:03:44 10° ESE 06:03:45 10° ESE visible
22 Oct ? 07:34:41 11° WSW 07:35:13 12° SW 07:36:14 10° SSW visible
26 Oct ? 20:08:30 10° SSE 20:09:16 12° SE 20:09:16 12° SE visible
27 Oct ? 19:21:31 10° SSW 19:24:03 36° SE 19:24:03 36° SE visible
28 Oct ? 19:35:50 10° SW 19:38:33 61° NW 19:38:41 60° NNW visible
29 Oct ? 19:50:58 10° W 19:53:10 22° NW 19:53:10 22° NW visible
30 Oct ? 18:30:41 10° SW 18:33:22 70° SE 18:36:06 10° NE visible
30 Oct ? 20:07:11 10° NW 20:07:33 11° NW 20:07:33 11° NW visible
